owner,sensor,date,latitude,longitude,vertical_datum,sea_water_temperature,qcFlag
Helix,ioos:station:wmo:42388:1,2023-03-02T16:07:00Z,27.7297,-91.1086,10.2,23.4,11111222
Helix,ioos:station:wmo:42388:1,2023-03-02T16:17:00Z,27.7297,-91.1086,10.5,23.4,11111222
Helix,ioos:station:wmo:42388:1,2023-03-02T16:27:00Z,27.7297,-91.1086,10.5,23.4,11111222
Helix,ioos:station:wmo:42388:1,2023-03-02T16:37:00Z,27.7297,-91.1086,10.3,23.4,11111222
Helix,ioos:station:wmo:42388:1,2023-03-02T16:47:00Z,27.7297,-91.1086,10.3,23.4,11111222
Helix,ioos:station:wmo:42388:1,2023-03-02T16:57:00Z,27.7297,-91.1086,10.1,23.4,11111222
Helix,ioos:station:wmo:42388:1,2023-03-02T17:07:00Z,27.7297,-91.1086,10.5,23.4,11111222
Helix,ioos:station:wmo:42388:1,2023-03-02T17:17:00Z,27.7297,-91.1086,10.4,23.4,11111222
Helix,ioos:station:wmo:42388:1,2023-03-02T17:27:00Z,27.7297,-91.1086,10.3,23.4,11111222
Helix,ioos:station:wmo:42388:1,2023-03-02T17:37:00Z,27.7297,-91.1086,10.2,23.4,11111222
Helix,ioos:station:wmo:42388:1,2023-03-02T17:47:00Z,27.7297,-91.1086,10.3,23.4,11111222
Helix,ioos:station:wmo:42388:1,2023-03-02T17:57:00Z,27.7297,-91.1086,10.4,23.4,11111222
Helix,ioos:station:wmo:42388:1,2023-03-02T18:07:00Z,27.7297,-91.1086,10.1,23.4,11111222
Helix,ioos:station:wmo:42388:1,2023-03-02T18:17:00Z,27.7297,-91.1086,10.4,23.4,11111222
Helix,ioos:station:wmo:42388:1,2023-03-02T18:27:00Z,27.7297,-91.1086,10.3,23.4,11111222
Helix,ioos:station:wmo:42388:1,2023-03-02T18:37:00Z,27.7297,-91.1086,10.4,23.4,11111222
Helix,ioos:station:wmo:42388:1,2023-03-02T18:47:00Z,27.7297,-91.1086,10.5,23.4,11111222
Helix,ioos:station:wmo:42388:1,2023-03-02T18:57:00Z,27.7297,-91.1086,10.5,23.5,11111222
Helix,ioos:station:wmo:42388:1,2023-03-02T19:08:00Z,27.7297,-91.1086,10.4,23.5,11111222
Helix,ioos:station:wmo:42388:1,2023-03-02T19:18:00Z,27.7297,-91.1086,10.5,23.5,11111222
Helix,ioos:station:wmo:42388:1,2023-03-02T19:28:00Z,27.7297,-91.1086,10.3,23.4,11111222
Helix,ioos:station:wmo:42388:1,2023-03-02T19:38:00Z,27.7297,-91.1086,10.5,23.5,11111222
Helix,ioos:station:wmo:42388:1,2023-03-02T19:48:00Z,27.7297,-91.1086,10.3,23.4,11111222
Helix,ioos:station:wmo:42388:1,2023-03-02T19:58:00Z,27.7297,-91.1086,10.3,23.4,11111222
Helix,ioos:station:wmo:42388:1,2023-03-02T20:08:00Z,27.7297,-91.1086,10.4,23.4,11111222
Helix,ioos:station:wmo:42388:1,2023-03-02T20:18:00Z,27.7297,-91.1086,10.4,23.5,11111222
Helix,ioos:station:wmo:42388:1,2023-03-02T20:28:00Z,27.7297,-91.1086,10.4,23.5,11111222
Helix,ioos:station:wmo:42388:1,2023-03-02T20:38:00Z,27.7297,-91.1086,10.5,23.5,11111222
Helix,ioos:station:wmo:42388:1,2023-03-02T20:48:00Z,27.7297,-91.1086,10.3,23.5,11111222
Helix,ioos:station:wmo:42388:1,2023-03-02T20:58:00Z,27.7297,-91.1086,10.3,23.5,11111222
Helix,ioos:station:wmo:42388:1,2023-03-02T21:08:00Z,27.7297,-91.1086,10.4,23.6,11111222
Helix,ioos:station:wmo:42388:1,2023-03-02T21:18:00Z,27.7297,-91.1086,10.3,23.5,11111222
Helix,ioos:station:wmo:42388:1,2023-03-02T21:28:00Z,27.7297,-91.1086,10.1,23.6,11111222
Helix,ioos:station:wmo:42388:1,2023-03-02T21:38:00Z,27.7297,-91.1086,10.4,23.6,11111222
Helix,ioos:station:wmo:42388:1,2023-03-02T21:48:00Z,27.7297,-91.1086,10.3,23.5,11111222
Helix,ioos:station:wmo:42388:1,2023-03-02T21:58:00Z,27.7297,-91.1086,10.3,23.5,11111222
Helix,ioos:station:wmo:42388:1,2023-03-02T22:08:00Z,27.7297,-91.1086,10.2,23.5,11111222
Helix,ioos:station:wmo:42388:1,2023-03-02T22:18:00Z,27.7297,-91.1086,10.2,23.5,11111222
Helix,ioos:station:wmo:42388:1,2023-03-02T22:28:00Z,27.7297,-91.1086,10.1,23.5,11111222
Helix,ioos:station:wmo:42388:1,2023-03-02T22:38:00Z,27.7297,-91.1086,10.4,23.5,11111222
Helix,ioos:station:wmo:42388:1,2023-03-02T22:48:00Z,27.7297,-91.1086,10.5,23.5,11111222
Helix,ioos:station:wmo:42388:1,2023-03-02T22:58:00Z,27.7297,-91.1086,10.3,23.5,11111222
Helix,ioos:station:wmo:42388:1,2023-03-02T23:08:00Z,27.7297,-91.1086,10.4,23.5,11111222
Helix,ioos:station:wmo:42388:1,2023-03-02T23:18:00Z,27.7297,-91.1086,10.1,23.5,11111222
Helix,ioos:station:wmo:42388:1,2023-03-02T23:28:00Z,27.7297,-91.1086,10.2,23.5,11111222
Helix,ioos:station:wmo:42388:1,2023-03-02T23:38:00Z,27.7297,-91.1086,10.1,23.5,11111222
Helix,ioos:station:wmo:42388:1,2023-03-02T23:48:00Z,27.7297,-91.1086,10.1,23.5,11111222
Helix,ioos:station:wmo:42388:1,2023-03-02T23:58:00Z,27.7297,-91.1086,10.6,23.5,11111222
Helix,ioos:station:wmo:42388:1,2023-03-03T00:08:00Z,27.7297,-91.1086,10.1,23.4,11111222
Helix,ioos:station:wmo:42388:1,2023-03-03T00:18:00Z,27.7297,-91.1086,10.2,23.4,11111222
Helix,ioos:station:wmo:42388:1,2023-03-03T00:28:00Z,27.7297,-91.1086,10.5,23.5,11111222
Helix,ioos:station:wmo:42388:1,2023-03-03T00:38:00Z,27.7297,-91.1086,10.5,23.5,11111222
Helix,ioos:station:wmo:42388:1,2023-03-03T00:48:00Z,27.7297,-91.1086,10.2,23.5,11111222
Helix,ioos:station:wmo:42388:1,2023-03-03T00:58:00Z,27.7297,-91.1086,10.1,23.4,11111222
Helix,ioos:station:wmo:42388:1,2023-03-03T01:08:00Z,27.7297,-91.1086,10.5,23.4,11111222
Helix,ioos:station:wmo:42388:1,2023-03-03T01:18:00Z,27.7297,-91.1086,10.4,23.5,11111222
Helix,ioos:station:wmo:42388:1,2023-03-03T01:28:00Z,27.7297,-91.1086,10.5,23.5,11111222
Helix,ioos:station:wmo:42388:1,2023-03-03T01:38:00Z,27.7297,-91.1086,10.5,23.5,11111222
Helix,ioos:station:wmo:42388:1,2023-03-03T01:48:00Z,27.7297,-91.1086,10.4,23.4,11111222
Helix,ioos:station:wmo:42388:1,2023-03-03T01:58:00Z,27.7297,-91.1086,10.4,23.4,11111222
Helix,ioos:station:wmo:42388:1,2023-03-03T02:08:00Z,27.7297,-91.1086,10.4,23.4,11111222
Helix,ioos:station:wmo:42388:1,2023-03-03T02:18:00Z,27.7297,-91.1086,10.2,23.4,11111222
Helix,ioos:station:wmo:42388:1,2023-03-03T02:28:00Z,27.7297,-91.1086,10.4,23.4,11111222
Helix,ioos:station:wmo:42388:1,2023-03-03T02:38:00Z,27.7297,-91.1086,10.3,23.4,11111222
Helix,ioos:station:wmo:42388:1,2023-03-03T02:48:00Z,27.7297,-91.1086,10.3,23.4,11111222
Helix,ioos:station:wmo:42388:1,2023-03-03T02:58:00Z,27.7297,-91.1086,10.4,23.4,11111222
Helix,ioos:station:wmo:42388:1,2023-03-03T03:08:00Z,27.7297,-91.1086,9.9,23.4,11111222
Helix,ioos:station:wmo:42388:1,2023-03-03T03:18:00Z,27.7297,-91.1086,10.5,23.4,11111222
Helix,ioos:station:wmo:42388:1,2023-03-03T03:28:00Z,27.7297,-91.1086,10.3,23.4,11111222
Helix,ioos:station:wmo:42388:1,2023-03-03T03:38:00Z,27.7297,-91.1086,10.5,23.4,11111222
Helix,ioos:station:wmo:42388:1,2023-03-03T03:48:00Z,27.7297,-91.1086,10.1,23.3,11111222
Helix,ioos:station:wmo:42388:1,2023-03-03T03:58:00Z,27.7297,-91.1086,10.1,23.3,11111222
Helix,ioos:station:wmo:42388:1,2023-03-03T04:08:00Z,27.7297,-91.1086,10.4,23.3,11111222
Helix,ioos:station:wmo:42388:1,2023-03-03T04:18:00Z,27.7297,-91.1086,10.2,23.3,11111222
Helix,ioos:station:wmo:42388:1,2023-03-03T04:28:00Z,27.7297,-91.1086,10.3,23.3,11111222
Helix,ioos:station:wmo:42388:1,2023-03-03T04:38:00Z,27.7297,-91.1086,10.3,23.3,11111222
Helix,ioos:station:wmo:42388:1,2023-03-03T04:48:00Z,27.7297,-91.1086,10.0,23.3,11111222
Helix,ioos:station:wmo:42388:1,2023-03-03T04:58:00Z,27.7297,-91.1086,10.1,23.3,11111222
Helix,ioos:station:wmo:42388:1,2023-03-03T05:08:00Z,27.7297,-91.1086,9.8,23.3,11111222
Helix,ioos:station:wmo:42388:1,2023-03-03T05:18:00Z,27.7297,-91.1086,10.1,23.3,11111222
Helix,ioos:station:wmo:42388:1,2023-03-03T05:28:00Z,27.7297,-91.1086,10.1,23.3,11111222
Helix,ioos:station:wmo:42388:1,2023-03-03T05:38:00Z,27.7297,-91.1086,10.3,23.3,11111222
Helix,ioos:station:wmo:42388:1,2023-03-03T05:48:00Z,27.7297,-91.1086,10.0,23.3,11111222
Helix,ioos:station:wmo:42388:1,2023-03-03T05:58:00Z,27.7297,-91.1086,10.1,23.3,11111222
Helix,ioos:station:wmo:42388:1,2023-03-03T06:08:00Z,27.7297,-91.1086,10.2,23.2,11111222
Helix,ioos:station:wmo:42388:1,2023-03-03T06:18:00Z,27.7297,-91.1086,10.1,23.2,11111222
Helix,ioos:station:wmo:42388:1,2023-03-03T06:28:00Z,27.7297,-91.1086,10.2,23.2,11111222
Helix,ioos:station:wmo:42388:1,2023-03-03T06:38:00Z,27.7297,-91.1086,10.2,23.2,11111222
Helix,ioos:station:wmo:42388:1,2023-03-03T06:48:00Z,27.7297,-91.1086,10.2,23.2,11111222
Helix,ioos:station:wmo:42388:1,2023-03-03T06:58:00Z,27.7297,-91.1086,10.1,23.2,11111222
Helix,ioos:station:wmo:42388:1,2023-03-03T07:08:00Z,27.7297,-91.1086,10.2,23.2,11111222
Helix,ioos:station:wmo:42388:1,2023-03-03T07:18:00Z,27.7297,-91.1086,10.3,23.2,11111222
Helix,ioos:station:wmo:42388:1,2023-03-03T07:28:00Z,27.7297,-91.1086,9.9,23.2,11111222
Helix,ioos:station:wmo:42388:1,2023-03-03T07:38:00Z,27.7297,-91.1086,9.9,23.2,11111222
Helix,ioos:station:wmo:42388:1,2023-03-03T07:48:00Z,27.7297,-91.1086,10.1,23.2,11111222
Helix,ioos:station:wmo:42388:1,2023-03-03T07:58:00Z,27.7297,-91.1086,9.7,23.2,11111222
Helix,ioos:station:wmo:42388:1,2023-03-03T08:08:00Z,27.7297,-91.1086,10.3,23.2,11111222
Helix,ioos:station:wmo:42388:1,2023-03-03T08:18:00Z,27.7297,-91.1086,10.1,23.2,11111222
Helix,ioos:station:wmo:42388:1,2023-03-03T08:28:00Z,27.7297,-91.1086,10.1,23.2,11111222
Helix,ioos:station:wmo:42388:1,2023-03-03T08:38:00Z,27.7297,-91.1086,10.1,23.2,11111222
Helix,ioos:station:wmo:42388:1,2023-03-03T08:48:00Z,27.7297,-91.1086,10.0,23.2,11111222
Helix,ioos:station:wmo:42388:1,2023-03-03T08:58:00Z,27.7297,-91.1086,10.3,23.2,11111222
Helix,ioos:station:wmo:42388:1,2023-03-03T09:08:00Z,27.7297,-91.1086,10.0,23.2,11111222
Helix,ioos:station:wmo:42388:1,2023-03-03T09:18:00Z,27.7297,-91.1086,10.1,23.2,11111222
Helix,ioos:station:wmo:42388:1,2023-03-03T09:28:00Z,27.7297,-91.1086,9.9,23.1,11111222
Helix,ioos:station:wmo:42388:1,2023-03-03T09:38:00Z,27.7297,-91.1086,9.9,23.1,11111222
Helix,ioos:station:wmo:42388:1,2023-03-03T09:48:00Z,27.7297,-91.1086,9.9,23.1,11111222
Helix,ioos:station:wmo:42388:1,2023-03-03T09:58:00Z,27.7297,-91.1086,9.9,23.1,11111222
Helix,ioos:station:wmo:42388:1,2023-03-03T10:08:00Z,27.7297,-91.1086,10.0,23.1,11111222
Helix,ioos:station:wmo:42388:1,2023-03-03T10:18:00Z,27.7297,-91.1086,9.8,23.1,11111222
Helix,ioos:station:wmo:42388:1,2023-03-03T10:28:00Z,27.7297,-91.1086,10.1,23.1,11111222
Helix,ioos:station:wmo:42388:1,2023-03-03T10:38:00Z,27.7297,-91.1086,10.1,23.1,11111222
Helix,ioos:station:wmo:42388:1,2023-03-03T10:48:00Z,27.7297,-91.1086,10.2,23.1,11111222
Helix,ioos:station:wmo:42388:1,2023-03-03T10:58:00Z,27.7297,-91.1086,10.1,23.1,11111222
Helix,ioos:station:wmo:42388:1,2023-03-03T11:08:00Z,27.7297,-91.1086,10.2,23.1,11111222
Helix,ioos:station:wmo:42388:1,2023-03-03T11:18:00Z,27.7297,-91.1086,10.0,23.1,11111222
Helix,ioos:station:wmo:42388:1,2023-03-03T11:28:00Z,27.7297,-91.1086,10.0,23.1,11111222
Helix,ioos:station:wmo:42388:1,2023-03-03T11:38:00Z,27.7297,-91.1086,10.2,23.1,11111222
Helix,ioos:station:wmo:42388:1,2023-03-03T11:48:00Z,27.7297,-91.1086,10.0,23.1,11111222
Helix,ioos:station:wmo:42388:1,2023-03-03T11:58:00Z,27.7297,-91.1086,10.4,23.1,11111222
Helix,ioos:station:wmo:42388:1,2023-03-03T12:08:00Z,27.7297,-91.1086,10.2,23.0,11111222
Helix,ioos:station:wmo:42388:1,2023-03-03T12:19:00Z,27.7297,-91.1086,10.3,23.0,11111222
Helix,ioos:station:wmo:42388:1,2023-03-03T12:29:00Z,27.7297,-91.1086,10.0,23.0,11111222
Helix,ioos:station:wmo:42388:1,2023-03-03T12:39:00Z,27.7297,-91.1086,10.0,23.0,11111222
Helix,ioos:station:wmo:42388:1,2023-03-03T12:49:00Z,27.7297,-91.1086,9.9,23.1,11111222
Helix,ioos:station:wmo:42388:1,2023-03-03T12:59:00Z,27.7297,-91.1086,10.2,23.1,11111222
Helix,ioos:station:wmo:42388:1,2023-03-03T13:09:00Z,27.7297,-91.1086,10.4,23.1,11111222
Helix,ioos:station:wmo:42388:1,2023-03-03T13:19:00Z,27.7297,-91.1086,10.4,23.1,11111222
Helix,ioos:station:wmo:42388:1,2023-03-03T13:29:00Z,27.7297,-91.1086,10.1,23.1,11111222
Helix,ioos:station:wmo:42388:1,2023-03-03T13:39:00Z,27.7297,-91.1086,10.2,23.1,11111222
Helix,ioos:station:wmo:42388:1,2023-03-03T13:49:00Z,27.7297,-91.1086,10.1,23.0,11111222
Helix,ioos:station:wmo:42388:1,2023-03-03T13:59:00Z,27.7297,-91.1086,10.4,23.0,11111222
Helix,ioos:station:wmo:42388:1,2023-03-03T14:09:00Z,27.7297,-91.1086,10.4,23.0,11111222
Helix,ioos:station:wmo:42388:1,2023-03-03T14:19:00Z,27.7297,-91.1086,10.0,23.0,11111222
Helix,ioos:station:wmo:42388:1,2023-03-03T14:29:00Z,27.7297,-91.1086,10.1,23.0,11111222
Helix,ioos:station:wmo:42388:1,2023-03-03T14:39:00Z,27.7297,-91.1086,10.4,23.0,11111222
Helix,ioos:station:wmo:42388:1,2023-03-03T14:49:00Z,27.7297,-91.1086,10.3,23.0,11111222
Helix,ioos:station:wmo:42388:1,2023-03-03T14:59:00Z,27.7297,-91.1086,10.1,23.0,11111222
Helix,ioos:station:wmo:42388:1,2023-03-03T15:09:00Z,27.7297,-91.1086,10.1,23.0,11111222
Helix,ioos:station:wmo:42388:1,2023-03-03T15:19:00Z,27.7297,-91.1086,10.4,23.0,11111222
Helix,ioos:station:wmo:42388:1,2023-03-03T15:29:00Z,27.7297,-91.1086,10.3,22.9,11111222
Helix,ioos:station:wmo:42388:1,2023-03-03T15:39:00Z,27.7297,-91.1086,10.3,22.9,11111222
Helix,ioos:station:wmo:42388:1,2023-03-03T15:49:00Z,27.7297,-91.1086,10.5,22.9,11111222
Helix,ioos:station:wmo:42388:1,2023-03-03T15:59:00Z,27.7297,-91.1086,10.1,22.9,11111222
Helix,ioos:station:wmo:42388:1,2023-03-03T16:09:00Z,27.7297,-91.1086,10.1,22.9,11111222
Helix,ioos:station:wmo:42388:1,2023-03-03T16:19:00Z,27.7297,-91.1086,10.3,22.9,11111222
Helix,ioos:station:wmo:42388:1,2023-03-03T16:29:00Z,27.7297,-91.1086,10.3,22.9,11111222
Helix,ioos:station:wmo:42388:1,2023-03-03T16:39:00Z,27.7297,-91.1086,10.6,22.9,11111222
Helix,ioos:station:wmo:42388:1,2023-03-03T16:49:00Z,27.7297,-91.1086,10.4,22.9,11111222
Helix,ioos:station:wmo:42388:1,2023-03-03T16:59:00Z,27.7297,-91.1086,10.0,22.9,11111222
Helix,ioos:station:wmo:42388:1,2023-03-03T17:09:00Z,27.7297,-91.1086,10.5,22.9,11111222
Helix,ioos:station:wmo:42388:1,2023-03-03T17:19:00Z,27.7297,-91.1086,10.5,22.9,11111222
Helix,ioos:station:wmo:42388:1,2023-03-03T17:29:00Z,27.7297,-91.1086,10.2,22.9,11111222
Helix,ioos:station:wmo:42388:1,2023-03-03T17:39:00Z,27.7297,-91.1086,10.3,22.9,11111222
Helix,ioos:station:wmo:42388:1,2023-03-03T17:49:00Z,27.7297,-91.1086,10.3,22.9,11111222
Helix,ioos:station:wmo:42388:1,2023-03-03T17:59:00Z,27.7297,-91.1086,10.4,22.9,11111222
Helix,ioos:station:wmo:42388:1,2023-03-03T18:09:00Z,27.7297,-91.1086,10.4,22.9,11111222
Helix,ioos:station:wmo:42388:1,2023-03-03T18:19:00Z,27.7297,-91.1086,10.2,22.9,11111222
Helix,ioos:station:wmo:42388:1,2023-03-03T18:29:00Z,27.7297,-91.1086,10.2,22.9,11111222
Helix,ioos:station:wmo:42388:1,2023-03-03T18:39:00Z,27.7297,-91.1086,10.3,22.8,11111222
Helix,ioos:station:wmo:42388:1,2023-03-03T18:49:00Z,27.7297,-91.1086,10.2,22.8,11111222
Helix,ioos:station:wmo:42388:1,2023-03-03T18:59:00Z,27.7297,-91.1086,10.4,22.8,11111222
Helix,ioos:station:wmo:42388:1,2023-03-03T19:09:00Z,27.7297,-91.1086,10.2,22.8,11111222
Helix,ioos:station:wmo:42388:1,2023-03-03T19:19:00Z,27.7297,-91.1086,10.5,22.8,11111222
Helix,ioos:station:wmo:42388:1,2023-03-03T19:29:00Z,27.7297,-91.1086,10.0,22.8,11111222
Helix,ioos:station:wmo:42388:1,2023-03-03T19:39:00Z,27.7297,-91.1086,10.5,22.8,11111222
Helix,ioos:station:wmo:42388:1,2023-03-03T19:49:00Z,27.7297,-91.1086,10.2,22.8,11111222
Helix,ioos:station:wmo:42388:1,2023-03-03T19:59:00Z,27.7297,-91.1086,10.3,22.8,11111222
Helix,ioos:station:wmo:42388:1,2023-03-03T20:09:00Z,27.7297,-91.1086,10.4,22.8,11111222
Helix,ioos:station:wmo:42388:1,2023-03-03T20:19:00Z,27.7297,-91.1086,10.3,22.8,11111222
Helix,ioos:station:wmo:42388:1,2023-03-03T20:29:00Z,27.7297,-91.1086,10.3,22.8,11111222
Helix,ioos:station:wmo:42388:1,2023-03-03T20:39:00Z,27.7297,-91.1086,10.3,22.8,11111222
Helix,ioos:station:wmo:42388:1,2023-03-03T20:49:00Z,27.7297,-91.1086,10.1,22.8,11111222
Helix,ioos:station:wmo:42388:1,2023-03-03T20:59:00Z,27.7297,-91.1086,10.6,22.8,11111222
Helix,ioos:station:wmo:42388:1,2023-03-03T21:09:00Z,27.7297,-91.1086,10.4,22.8,11111222
Helix,ioos:station:wmo:42388:1,2023-03-03T21:19:00Z,27.7297,-91.1086,10.4,22.8,11111222
Helix,ioos:station:wmo:42388:1,2023-03-03T21:29:00Z,27.7297,-91.1086,10.4,22.8,11111222
Helix,ioos:station:wmo:42388:1,2023-03-03T21:39:00Z,27.7297,-91.1086,10.3,22.8,11111222
Helix,ioos:station:wmo:42388:1,2023-03-03T21:49:00Z,27.7297,-91.1086,10.3,22.8,11111222
Helix,ioos:station:wmo:42388:1,2023-03-03T21:59:00Z,27.7297,-91.1086,10.3,22.8,11111222
Helix,ioos:station:wmo:42388:1,2023-03-03T22:09:00Z,27.7297,-91.1086,10.5,22.8,11111222
Helix,ioos:station:wmo:42388:1,2023-03-03T22:19:00Z,27.7297,-91.1086,10.4,22.8,11111222
Helix,ioos:station:wmo:42388:1,2023-03-03T22:29:00Z,27.7297,-91.1086,10.7,22.7,11111222
Helix,ioos:station:wmo:42388:1,2023-03-03T22:39:00Z,27.7297,-91.1086,10.5,22.7,11111222
Helix,ioos:station:wmo:42388:1,2023-03-03T22:49:00Z,27.7297,-91.1086,10.5,22.7,11111222
Helix,ioos:station:wmo:42388:1,2023-03-03T22:59:00Z,27.7297,-91.1086,10.6,22.7,11111222
Helix,ioos:station:wmo:42388:1,2023-03-03T23:09:00Z,27.7297,-91.1086,10.5,22.7,11111222
Helix,ioos:station:wmo:42388:1,2023-03-03T23:19:00Z,27.7297,-91.1086,10.4,22.7,11111222
Helix,ioos:station:wmo:42388:1,2023-03-03T23:29:00Z,27.7297,-91.1086,10.6,22.7,11111222
Helix,ioos:station:wmo:42388:1,2023-03-03T23:39:00Z,27.7297,-91.1086,10.4,22.7,11111222
Helix,ioos:station:wmo:42388:1,2023-03-03T23:49:00Z,27.7297,-91.1086,10.4,22.7,11111222
Helix,ioos:station:wmo:42388:1,2023-03-03T23:59:00Z,27.7297,-91.1086,10.7,22.7,11111222
Helix,ioos:station:wmo:42388:1,2023-03-04T00:09:00Z,27.7297,-91.1086,10.4,22.7,11111222
Helix,ioos:station:wmo:42388:1,2023-03-04T00:19:00Z,27.7297,-91.1086,10.7,22.7,11111222
Helix,ioos:station:wmo:42388:1,2023-03-04T00:29:00Z,27.7297,-91.1086,10.6,22.7,11111222
Helix,ioos:station:wmo:42388:1,2023-03-04T00:39:00Z,27.7297,-91.1086,10.4,22.7,11111222
Helix,ioos:station:wmo:42388:1,2023-03-04T00:49:00Z,27.7297,-91.1086,10.5,22.7,11111222
Helix,ioos:station:wmo:42388:1,2023-03-04T00:59:00Z,27.7297,-91.1086,10.6,22.6,11111222
Helix,ioos:station:wmo:42388:1,2023-03-04T01:09:00Z,27.7297,-91.1086,10.4,22.6,11111222
Helix,ioos:station:wmo:42388:1,2023-03-04T01:19:00Z,27.7297,-91.1086,10.4,22.6,11111222
Helix,ioos:station:wmo:42388:1,2023-03-04T01:29:00Z,27.7297,-91.1086,10.4,22.6,11111222
Helix,ioos:station:wmo:42388:1,2023-03-04T01:39:00Z,27.7297,-91.1086,10.7,22.6,11111222
Helix,ioos:station:wmo:42388:1,2023-03-04T01:49:00Z,27.7297,-91.1086,10.8,22.6,11111222
Helix,ioos:station:wmo:42388:1,2023-03-04T01:59:00Z,27.7297,-91.1086,10.3,22.6,11111222
Helix,ioos:station:wmo:42388:1,2023-03-04T02:09:00Z,27.7297,-91.1086,10.4,22.6,11111222
Helix,ioos:station:wmo:42388:1,2023-03-04T02:19:00Z,27.7297,-91.1086,10.4,22.6,11111222
Helix,ioos:station:wmo:42388:1,2023-03-04T02:29:00Z,27.7297,-91.1086,10.3,22.6,11111222
Helix,ioos:station:wmo:42388:1,2023-03-04T02:39:00Z,27.7297,-91.1086,10.6,22.6,11111222
Helix,ioos:station:wmo:42388:1,2023-03-04T02:49:00Z,27.7297,-91.1086,10.5,22.6,11111222
Helix,ioos:station:wmo:42388:1,2023-03-04T02:59:00Z,27.7297,-91.1086,10.7,22.6,11111222
Helix,ioos:station:wmo:42388:1,2023-03-04T03:09:00Z,27.7297,-91.1086,10.6,22.6,11111222
Helix,ioos:station:wmo:42388:1,2023-03-04T03:19:00Z,27.7297,-91.1086,10.5,22.6,11111222
Helix,ioos:station:wmo:42388:1,2023-03-04T03:29:00Z,27.7297,-91.1086,10.2,22.6,11111222
Helix,ioos:station:wmo:42388:1,2023-03-04T03:39:00Z,27.7297,-91.1086,10.6,22.6,11111222
Helix,ioos:station:wmo:42388:1,2023-03-04T03:49:00Z,27.7297,-91.1086,10.7,22.6,11111222
Helix,ioos:station:wmo:42388:1,2023-03-04T03:59:00Z,27.7297,-91.1086,10.5,22.6,11111222
Helix,ioos:station:wmo:42388:1,2023-03-04T04:09:00Z,27.7297,-91.1086,10.3,22.6,11111222
Helix,ioos:station:wmo:42388:1,2023-03-04T04:19:00Z,27.7297,-91.1086,10.4,22.6,11111222
Helix,ioos:station:wmo:42388:1,2023-03-04T04:29:00Z,27.7297,-91.1086,10.4,22.6,11111222
Helix,ioos:station:wmo:42388:1,2023-03-04T04:39:00Z,27.7297,-91.1086,10.4,22.6,11111222
Helix,ioos:station:wmo:42388:1,2023-03-04T04:49:00Z,27.7297,-91.1086,10.2,22.6,11111222
Helix,ioos:station:wmo:42388:1,2023-03-04T04:59:00Z,27.7297,-91.1086,10.5,22.6,11111222
Helix,ioos:station:wmo:42388:1,2023-03-04T05:09:00Z,27.7297,-91.1086,10.7,22.6,11111222
Helix,ioos:station:wmo:42388:1,2023-03-04T05:19:00Z,27.7297,-91.1086,10.7,22.6,11111222
Helix,ioos:station:wmo:42388:1,2023-03-04T05:29:00Z,27.7297,-91.1086,10.2,22.6,11111222
Helix,ioos:station:wmo:42388:1,2023-03-04T05:40:00Z,27.7297,-91.1086,10.4,22.6,11111222
Helix,ioos:station:wmo:42388:1,2023-03-04T05:50:00Z,27.7297,-91.1086,10.3,22.6,11111222
Helix,ioos:station:wmo:42388:1,2023-03-04T06:00:00Z,27.7297,-91.1086,10.7,22.6,11111222
Helix,ioos:station:wmo:42388:1,2023-03-04T06:10:00Z,27.7297,-91.1086,10.6,22.6,11111222
Helix,ioos:station:wmo:42388:1,2023-03-04T06:20:00Z,27.7297,-91.1086,10.4,22.6,11111222
Helix,ioos:station:wmo:42388:1,2023-03-04T06:30:00Z,27.7297,-91.1086,10.4,22.6,11111222
Helix,ioos:station:wmo:42388:1,2023-03-04T06:40:00Z,27.7297,-91.1086,10.5,22.6,11111222
Helix,ioos:station:wmo:42388:1,2023-03-04T06:50:00Z,27.7297,-91.1086,10.6,22.6,11111222
Helix,ioos:station:wmo:42388:1,2023-03-04T07:00:00Z,27.7297,-91.1086,10.4,22.6,11111222
Helix,ioos:station:wmo:42388:1,2023-03-04T07:10:00Z,27.7297,-91.1086,10.5,22.6,11111222
Helix,ioos:station:wmo:42388:1,2023-03-04T07:20:00Z,27.7297,-91.1086,10.4,22.6,11111222
Helix,ioos:station:wmo:42388:1,2023-03-04T07:30:00Z,27.7297,-91.1086,10.4,22.6,11111222
Helix,ioos:station:wmo:42388:1,2023-03-04T07:40:00Z,27.7297,-91.1086,10.6,22.6,11111222
Helix,ioos:station:wmo:42388:1,2023-03-04T07:50:00Z,27.7297,-91.1086,10.6,22.6,11111222
Helix,ioos:station:wmo:42388:1,2023-03-04T08:00:00Z,27.7297,-91.1086,10.2,22.6,11111222
Helix,ioos:station:wmo:42388:1,2023-03-04T08:10:00Z,27.7297,-91.1086,10.7,22.6,11111222
Helix,ioos:station:wmo:42388:1,2023-03-04T08:20:00Z,27.7297,-91.1086,10.3,22.6,11111222
Helix,ioos:station:wmo:42388:1,2023-03-04T08:30:00Z,27.7297,-91.1086,10.5,22.6,11111222
Helix,ioos:station:wmo:42388:1,2023-03-04T08:40:00Z,27.7297,-91.1086,10.8,22.6,11111222
Helix,ioos:station:wmo:42388:1,2023-03-04T08:50:00Z,27.7297,-91.1086,10.4,22.6,11111222
Helix,ioos:station:wmo:42388:1,2023-03-04T09:00:00Z,27.7297,-91.1086,10.3,22.6,11111222
Helix,ioos:station:wmo:42388:1,2023-03-04T09:10:00Z,27.7297,-91.1086,10.5,22.7,11111222
Helix,ioos:station:wmo:42388:1,2023-03-04T09:20:00Z,27.7297,-91.1086,10.3,22.6,11111222
Helix,ioos:station:wmo:42388:1,2023-03-04T09:30:00Z,27.7297,-91.1086,10.5,22.6,11111222
Helix,ioos:station:wmo:42388:1,2023-03-04T09:40:00Z,27.7297,-91.1086,10.5,22.6,11111222
Helix,ioos:station:wmo:42388:1,2023-03-04T09:50:00Z,27.7297,-91.1086,10.3,22.6,11111222
Helix,ioos:station:wmo:42388:1,2023-03-04T10:00:00Z,27.7297,-91.1086,10.2,22.6,11111222
Helix,ioos:station:wmo:42388:1,2023-03-04T10:10:00Z,27.7297,-91.1086,10.7,22.6,11111222
Helix,ioos:station:wmo:42388:1,2023-03-04T10:20:00Z,27.7297,-91.1086,10.7,22.7,11111222
Helix,ioos:station:wmo:42388:1,2023-03-04T10:30:00Z,27.7297,-91.1086,10.6,22.7,11111222
Helix,ioos:station:wmo:42388:1,2023-03-04T10:40:00Z,27.7297,-91.1086,10.0,22.7,11111222
Helix,ioos:station:wmo:42388:1,2023-03-04T10:50:00Z,27.7297,-91.1086,10.4,22.7,11111222
Helix,ioos:station:wmo:42388:1,2023-03-04T11:00:00Z,27.7297,-91.1086,10.6,22.7,11111222
Helix,ioos:station:wmo:42388:1,2023-03-04T11:10:00Z,27.7297,-91.1086,10.5,22.7,11111222
Helix,ioos:station:wmo:42388:1,2023-03-04T11:20:00Z,27.7297,-91.1086,10.5,22.7,11111222
Helix,ioos:station:wmo:42388:1,2023-03-04T11:30:00Z,27.7297,-91.1086,10.6,22.7,11111222
Helix,ioos:station:wmo:42388:1,2023-03-04T11:40:00Z,27.7297,-91.1086,10.4,22.7,11111222
Helix,ioos:station:wmo:42388:1,2023-03-04T11:50:00Z,27.7297,-91.1086,10.7,22.7,11111222
Helix,ioos:station:wmo:42388:1,2023-03-04T12:00:00Z,27.7297,-91.1086,10.4,22.7,11111222
Helix,ioos:station:wmo:42388:1,2023-03-04T12:10:00Z,27.7297,-91.1086,10.4,22.7,11111222
Helix,ioos:station:wmo:42388:1,2023-03-04T12:20:00Z,27.7297,-91.1086,10.7,22.7,11111222
Helix,ioos:station:wmo:42388:1,2023-03-04T12:30:00Z,27.7297,-91.1086,10.7,22.7,11111222
Helix,ioos:station:wmo:42388:1,2023-03-04T12:40:00Z,27.7297,-91.1086,10.4,22.7,11111222